Location: Pedimozza
(42.0500°N, 9.3500°E)
Time: 03:32:25
(UTC+00:00)

USA 267 - Pass Details

Date: 19 August 2019
Orbit: 1102 x 1106 km, 123.0° (Epoch: 17 September)

Event Time Altitude Azimuth Distance (km) Brightness Sun altitude
Exits shadow 23:45:59 23° 86° (E) 2,157 4.8 -35.2°
Maximum altitude 23:49:43 44° 28° (NNE) 1,478 4.2 -35.1°
Drops below altitude 10° 23:55:50 10° 319° (NW) 2,966 5.9 -34.9°
Sets 23:58:26 0° 313° (NW) 3,925 6.6 -34.8°
